Weather in Farafangana

Madagascar     22°49′20″S   47°49′17″E
temp.,
°C
wind,
m/s
gust,
m/s
humid.,
%
clouds,
%
prec.,
mm/h
press.,
hPa
HPBL,
m
21 january, thu
thu2100:00+26ne379271 5.9 1012258
03:00+25ne239345 6.9 1011140
06:00+26nne129354 1.6 1012119
09:00+30nne347634 2.1 1013852
12:00+31ene456717 0.4 1012889
15:00+31ene577111 0.4 1010792
18:00+28ne36820 0.0 1011709
21:00+27nne398930 0.1 1013498
22 january, fri
fri2200:00+26nne279452 0.4 1013339
03:00+25nne129653 0.6 101283
06:00+25nnw1495100 0.1 1013175
09:00+30nne347170 0.1 1013927
12:00+32ene446574 0.2 1012946
15:00+31ene566974 0.3 1011745
18:00+28ne4782100 0.1 1011678
21:00+27ne389096 0.4 1013452
23 january, sat
sat2300:00+26nne2494100 1.7 1014189
03:00+25nnw119696 1.7 101277
06:00+25nw019568 0.1 101344
09:00+30nne237246 0.5 1014818
12:00+31ene456743 0.6 1013901
15:00+31ene566629 0.8 1011793
18:00+28ene3679100 0.0 1012718
21:00+26ne238767 0.0 1013136
24 january, sun
sun2400:00+25nw11932 1.6 101361
03:00+24wsw119517 1.8 101237
06:00+24sw119427 0.0 101334
09:00+30ne136914 0.0 1013866
12:00+31ene446240 0.0 1012992
15:00+30ene456562 0.1 1011852
18:00+28ene477819 0.0 1011749
21:00+26ne378216 0.0 1013444
25 january, mon
mon2500:00+25n268623 0.0 1013270
03:00+23nnw129211 0.0 101285
06:00+24nnw12920 0.0 1013125
09:00+29nne34650 0.0 1014885
12:00+31ene55620 0.0 1012913
15:00+30ene56670 0.0 1011845
18:00+28ene46790 0.0 1011726
21:00+25ne269012 1.8 1014268